| time (UTC) | temp F | wind direction | speed MPH | gust MPH | rain 1hr in | rain 24hr in | rain mn in | humidity % | barometer mb |
| 20260508060531 | 45 | 318 | 3.0 | 8.0 | 0.00 | 0.00 | 0.00 | 59 | 1004.9 |
| 20260508060049 | 46 | 314 | 4.0 | 6.0 | 0.00 | 0.00 | 0.00 | 59 | 1005.0 |
| 20260508055532 | 46 | 309 | 3.0 | 6.0 | 0.00 | 0.01 | 0.00 | 59 | 1005.1 |
| 20260508055035 | 46 | 320 | 3.0 | 6.0 | 0.00 | 0.01 | 0.00 | 59 | 1005.1 |
| 20260508054605 | 46 | 309 | 2.0 | 5.0 | 0.00 | 0.01 | 0.00 | 59 | 1005.1 |
| 20260508054031 | 46 | 313 | 3.0 | 5.0 | 0.00 | 0.01 | 0.00 | 59 | 1005.2 |
| 20260508053532 | 46 | 315 | 2.0 | 4.0 | 0.00 | 0.01 | 0.00 | 58 | 1005.2 |
| 20260508053044 | 46 | 320 | 3.0 | 5.0 | 0.00 | 0.01 | 0.00 | 57 | 1005.3 |
| 20260508052533 | 46 | 306 | 3.0 | 5.0 | 0.00 | 0.01 | 0.00 | 57 | 1005.3 |
| 20260508052033 | 46 | 306 | 3.0 | 4.0 | 0.00 | 0.01 | 0.00 | 57 | 1005.4 |
| 20260508051545 | 47 | 310 | 3.0 | 4.0 | 0.00 | 0.01 | 0.00 | 56 | 1005.4 |
| 20260508051033 | 47 | 304 | 2.0 | 4.0 | 0.00 | 0.01 | 0.00 | 57 | 1005.5 |
| 20260508050534 | 47 | 315 | 2.0 | 4.0 | 0.00 | 0.01 | 0.00 | 56 | 1005.6 |
| 20260508050053 | 47 | 318 | 2.0 | 4.0 | 0.00 | 0.01 | 0.00 | 56 | 1005.6 |
| 20260508045532 | 47 | 313 | 2.0 | 4.0 | 0.00 | 0.04 | 0.00 | 56 | 1005.6 |
| 20260508045033 | 47 | 327 | 1.0 | 5.0 | 0.00 | 0.04 | 0.00 | 56 | 1005.6 |
| 20260508044545 | 47 | 302 | 2.0 | 5.0 | 0.00 | 0.04 | 0.00 | 56 | 1005.6 |
| 20260508044031 | 47 | 315 | 3.0 | 5.0 | 0.00 | 0.04 | 0.00 | 56 | 1005.6 |
| 20260508043532 | 48 | 307 | 3.0 | 4.0 | 0.00 | 0.04 | 0.00 | 56 | 1005.6 |
| 20260508043048 | 48 | 318 | 3.0 | 4.0 | 0.00 | 0.04 | 0.00 | 55 | 1005.6 |
| 20260508042533 | 48 | 318 | 2.0 | 4.0 | 0.00 | 0.04 | 0.00 | 54 | 1005.7 |
| 20260508042031 | 48 | 313 | 1.0 | 4.0 | 0.00 | 0.04 | 0.00 | 54 | 1005.7 |
| 20260508041547 | 49 | 311 | 2.0 | 4.0 | 0.00 | 0.04 | 0.00 | 53 | 1005.8 |
| 20260508041033 | 49 | 313 | 2.0 | 4.0 | 0.00 | 0.04 | 0.00 | 52 | 1005.8 |
| 20260508040533 | 49 | 315 | 2.0 | 5.0 | 0.00 | 0.04 | 0.00 | 52 | 1005.7 |
| 20260508040054 | 49 | 317 | 2.0 | 5.0 | 0.00 | 0.04 | 0.00 | 51 | 1005.7 |
| 20260508035534 | 49 | 319 | 3.0 | 6.0 | 0.00 | 0.07 | 0.04 | 50 | 1005.7 |
| 20260508035032 | 50 | 319 | 3.0 | 6.0 | 0.00 | 0.07 | 0.04 | 49 | 1005.6 |
| 20260508034548 | 50 | 314 | 3.0 | 6.0 | 0.00 | 0.07 | 0.04 | 49 | 1005.7 |
| 20260508034034 | 50 | 323 | 3.0 | 6.0 | 0.00 | 0.07 | 0.04 | 48 | 1005.8 |
| 20260508033532 | 50 | 323 | 2.0 | 6.0 | 0.00 | 0.07 | 0.04 | 48 | 1005.8 |
| 20260508033041 | 50 | 351 | 2.0 | 8.0 | 0.00 | 0.07 | 0.04 | 47 | 1005.8 |
| 20260508032530 | 50 | 334 | 2.0 | 8.0 | 0.00 | 0.07 | 0.04 | 47 | 1005.8 |
| 20260508032029 | 51 | 321 | 4.0 | 6.0 | 0.00 | 0.07 | 0.04 | 46 | 1005.7 |
| 20260508031550 | 51 | 344 | 3.0 | 6.0 | 0.00 | 0.07 | 0.04 | 46 | 1005.7 |
| 20260508031030 | 51 | 317 | 2.0 | 6.0 | 0.00 | 0.07 | 0.04 | 46 | 1005.8 |
| 20260508030531 | 51 | 335 | 4.0 | 7.0 | 0.00 | 0.07 | 0.04 | 46 | 1005.8 |
| 20260508030046 | 51 | 335 | 3.0 | 7.0 | 0.00 | 0.07 | 0.04 | 46 | 1005.8 |
| 20260508025530 | 51 | 328 | 3.0 | 9.0 | 0.00 | 0.07 | 0.04 | 46 | 1005.9 |
| 20260508025033 | 51 | 5 | 4.0 | 9.0 | 0.00 | 0.07 | 0.04 | 45 | 1005.9 |
| 20260508024548 | 51 | 323 | 4.0 | 9.0 | 0.00 | 0.07 | 0.04 | 45 | 1005.8 |
| 20260508024031 | 51 | 321 | 2.0 | 5.0 | 0.00 | 0.07 | 0.04 | 46 | 1005.8 |
| 20260508023531 | 52 | 340 | 2.0 | 6.0 | 0.00 | 0.07 | 0.04 | 46 | 1005.8 |
| 20260508023046 | 52 | 352 | 2.0 | 10.0 | 0.00 | 0.07 | 0.04 | 46 | 1005.7 |
| 20260508022530 | 52 | 17 | 3.0 | 10.0 | 0.00 | 0.07 | 0.04 | 45 | 1005.6 |
| 20260508022030 | 52 | 27 | 4.0 | 10.0 | 0.00 | 0.07 | 0.04 | 45 | 1005.4 |
| 20260508021545 | 52 | 331 | 4.0 | 9.0 | 0.00 | 0.07 | 0.04 | 45 | 1005.5 |
| 20260508021033 | 52 | 318 | 3.0 | 11.0 | 0.00 | 0.07 | 0.04 | 45 | 1005.4 |
| 20260508020530 | 53 | 333 | 3.0 | 11.0 | 0.00 | 0.07 | 0.04 | 45 | 1005.5 |
| 20260508020040 | 53 | 5 | 4.0 | 8.0 | 0.00 | 0.07 | 0.04 | 44 | 1005.4 |
| 20260508015530 | 53 | 32 | 3.0 | 8.0 | 0.00 | 0.08 | 0.04 | 44 | 1005.3 |
| 20260508015030 | 54 | 26 | 3.0 | 8.0 | 0.00 | 0.08 | 0.04 | 43 | 1005.2 |
| 20260508014547 | 54 | 348 | 3.0 | 9.0 | 0.00 | 0.08 | 0.04 | 42 | 1005.2 |
| 20260508014031 | 54 | 5 | 4.0 | 9.0 | 0.00 | 0.08 | 0.04 | 41 | 1005.1 |
| 20260508013530 | 55 | 346 | 4.0 | 9.0 | 0.00 | 0.08 | 0.04 | 40 | 1004.9 |
| 20260508013046 | 55 | 24 | 4.0 | 13.0 | 0.00 | 0.08 | 0.04 | 40 | 1004.9 |
| 20260508012530 | 55 | 344 | 5.0 | 13.0 | 0.00 | 0.08 | 0.04 | 39 | 1004.7 |
| 20260508012030 | 55 | 355 | 4.0 | 11.0 | 0.00 | 0.08 | 0.04 | 39 | 1004.7 |
| 20260508011550 | 55 | 308 | 5.0 | 11.0 | 0.00 | 0.08 | 0.04 | 39 | 1004.6 |
| 20260508011030 | 55 | 338 | 3.0 | 11.0 | 0.00 | 0.08 | 0.04 | 40 | 1004.7 |
| 20260508010530 | 56 | 328 | 4.0 | 11.0 | 0.00 | 0.08 | 0.04 | 38 | 1004.6 |
| 20260508010051 | 56 | 311 | 2.0 | 5.0 | 0.00 | 0.08 | 0.04 | 40 | 1004.5 |
| 20260508005530 | 56 | 317 | 3.0 | 5.0 | 0.00 | 0.09 | 0.04 | 39 | 1004.5 |
| 20260508005032 | 56 | 355 | 2.0 | 6.0 | 0.00 | 0.09 | 0.04 | 39 | 1004.4 |
| 20260508004550 | 56 | 344 | 3.0 | 6.0 | 0.00 | 0.09 | 0.04 | 39 | 1004.3 |
| 20260508004030 | 56 | 327 | 2.0 | 6.0 | 0.00 | 0.09 | 0.04 | 38 | 1004.2 |
| 20260508003530 | 57 | 331 | 3.0 | 6.0 | 0.00 | 0.09 | 0.04 | 37 | 1004.0 |
| 20260508003046 | 57 | 340 | 3.0 | 10.0 | 0.00 | 0.09 | 0.04 | 37 | 1003.9 |
| 20260508002530 | 57 | 317 | 4.0 | 11.0 | 0.00 | 0.09 | 0.04 | 37 | 1003.8 |
| 20260508002030 | 57 | 306 | 4.0 | 11.0 | 0.00 | 0.09 | 0.04 | 37 | 1003.7 |
| 20260508001546 | 57 | 333 | 4.0 | 8.0 | 0.00 | 0.09 | 0.04 | 37 | 1003.6 |
| 20260508001031 | 57 | 324 | 4.0 | 8.0 | 0.00 | 0.09 | 0.04 | 39 | 1003.6 |
| 20260508000533 | 57 | 324 | 4.0 | 8.0 | 0.00 | 0.09 | 0.04 | 39 | 1003.6 |
| 20260507235530 | 58 | 294 | 3.0 | 8.0 | 0.00 | 0.09 | 0.04 | 39 | 1003.3 |
| 20260507235031 | 58 | 307 | 1.0 | 4.0 | 0.00 | 0.09 | 0.04 | 39 | 1003.4 |
| 20260507234546 | 58 | 304 | 1.0 | 8.0 | 0.00 | 0.09 | 0.04 | 38 | 1003.4 |
| 20260507234030 | 58 | 320 | 3.0 | 8.0 | 0.00 | 0.09 | 0.04 | 39 | 1003.4 |
| 20260507233531 | 58 | 315 | 3.0 | 6.0 | 0.00 | 0.09 | 0.04 | 37 | 1003.3 |
| 20260507233040 | 59 | 265 | 2.0 | 8.0 | 0.00 | 0.09 | 0.04 | 37 | 1003.4 |
| 20260507232530 | 59 | 291 | 4.0 | 8.0 | 0.00 | 0.09 | 0.04 | 37 | 1003.3 |
| 20260507232032 | 59 | 299 | 4.0 | 11.0 | 0.00 | 0.09 | 0.04 | 37 | 1003.3 |
| 20260507231545 | 59 | 355 | 3.0 | 11.0 | 0.00 | 0.09 | 0.04 | 37 | 1003.2 |
| 20260507231030 | 59 | 314 | 6.0 | 11.0 | 0.00 | 0.09 | 0.04 | 36 | 1003.2 |
| 20260507230533 | 59 | 331 | 2.0 | 8.0 | 0.00 | 0.09 | 0.04 | 37 | 1003.1 |
| 20260507230046 | 60 | 309 | 4.0 | 9.0 | 0.00 | 0.09 | 0.04 | 36 | 1003.0 |
| 20260507225530 | 60 | 315 | 4.0 | 12.0 | 0.00 | 0.12 | 0.04 | 36 | 1002.9 |
| 20260507225030 | 60 | 344 | 3.0 | 12.0 | 0.00 | 0.12 | 0.04 | 36 | 1002.8 |
| 20260507224545 | 60 | 302 | 7.0 | 13.0 | 0.00 | 0.12 | 0.04 | 36 | 1002.7 |
| 20260507224035 | 60 | 298 | 6.0 | 13.0 | 0.00 | 0.12 | 0.04 | 36 | 1002.6 |
| 20260507223533 | 60 | 314 | 7.0 | 13.0 | 0.00 | 0.12 | 0.04 | 35 | 1002.7 |
| 20260507223044 | 61 | 311 | 4.0 | 12.0 | 0.00 | 0.12 | 0.04 | 36 | 1002.7 |
| 20260507222530 | 61 | 315 | 4.0 | 12.0 | 0.00 | 0.12 | 0.04 | 37 | 1002.5 |
| 20260507222030 | 61 | 318 | 5.0 | 12.0 | 0.00 | 0.12 | 0.04 | 34 | 1002.5 |
| 20260507221540 | 61 | 340 | 4.0 | 11.0 | 0.00 | 0.12 | 0.04 | 36 | 1002.3 |
| 20260507221033 | 61 | 321 | 3.0 | 11.0 | 0.00 | 0.12 | 0.04 | 36 | 1002.3 |
| 20260507220532 | 61 | 307 | 3.0 | 12.0 | 0.00 | 0.12 | 0.04 | 35 | 1002.3 |
| 20260507220040 | 61 | 315 | 7.0 | 13.0 | 0.00 | 0.12 | 0.04 | 34 | 1002.3 |
| 20260507215534 | 61 | 294 | 6.0 | 13.0 | 0.00 | 0.22 | 0.04 | 34 | 1002.3 |
| 20260507215030 | 61 | 302 | 7.0 | 12.0 | 0.00 | 0.22 | 0.04 | 34 | 1002.2 |
| 20260507214548 | 61 | 315 | 7.0 | 11.0 | 0.00 | 0.22 | 0.04 | 35 | 1002.2 |
| 20260507214030 | 61 | 311 | 4.0 | 11.0 | 0.00 | 0.22 | 0.04 | 35 | 1002.3 |
| 20260507213533 | 60 | 306 | 6.0 | 11.0 | 0.00 | 0.22 | 0.04 | 35 | 1002.3 |
| 20260507213045 | 60 | 272 | 5.0 | 18.0 | 0.00 | 0.22 | 0.04 | 36 | 1002.3 |
| 20260507212530 | 61 | 318 | 9.0 | 18.0 | 0.00 | 0.22 | 0.04 | 34 | 1002.3 |
| 20260507212033 | 62 | 325 | 10.0 | 18.0 | 0.00 | 0.22 | 0.04 | 35 | 1002.3 |
| 20260507211551 | 62 | 292 | 8.0 | 13.0 | 0.00 | 0.22 | 0.04 | 34 | 1002.2 |
| 20260507211030 | 62 | 247 | 3.0 | 13.0 | 0.00 | 0.22 | 0.04 | 35 | 1002.1 |
| 20260507210530 | 62 | 311 | 6.0 | 13.0 | 0.00 | 0.22 | 0.04 | 35 | 1002.2 |
| 20260507210046 | 62 | 311 | 6.0 | 11.0 | 0.00 | 0.22 | 0.04 | 35 | 1002.2 |
| 20260507205530 | 63 | 306 | 5.0 | 13.0 | 0.00 | 0.24 | 0.04 | 36 | 1002.1 |
| 20260507205030 | 62 | 262 | 4.0 | 13.0 | 0.00 | 0.24 | 0.04 | 36 | 1002.0 |
| 20260507204543 | 62 | 273 | 8.0 | 13.0 | 0.00 | 0.24 | 0.04 | 35 | 1002.1 |
| 20260507204031 | 62 | 296 | 7.0 | 15.0 | 0.00 | 0.24 | 0.04 | 35 | 1002.0 |
| 20260507203531 | 61 | 340 | 7.0 | 15.0 | 0.00 | 0.24 | 0.04 | 34 | 1002.1 |
| 20260507203046 | 62 | 334 | 6.0 | 16.0 | 0.00 | 0.24 | 0.04 | 35 | 1002.0 |
| 20260507202530 | 61 | 329 | 6.0 | 16.0 | 0.00 | 0.24 | 0.04 | 34 | 1002.1 |
| 20260507202030 | 62 | 249 | 7.0 | 16.0 | 0.00 | 0.24 | 0.04 | 34 | 1002.1 |
| 20260507201545 | 62 | 308 | 7.0 | 13.0 | 0.00 | 0.24 | 0.04 | 34 | 1002.0 |
| 20260507201030 | 62 | 271 | 6.0 | 12.0 | 0.00 | 0.24 | 0.04 | 33 | 1002.0 |
| 20260507200530 | 62 | 315 | 6.0 | 14.0 | 0.00 | 0.24 | 0.04 | 35 | 1002.1 |
| 20260507200043 | 62 | 294 | 5.0 | 14.0 | 0.00 | 0.24 | 0.04 | 34 | 1002.1 |
| 20260507195530 | 62 | 284 | 9.0 | 16.0 | 0.00 | 0.28 | 0.04 | 33 | 1002.1 |
| 20260507195030 | 62 | 284 | 8.0 | 17.0 | 0.00 | 0.28 | 0.04 | 35 | 1002.2 |
| 20260507194545 | 62 | 302 | 9.0 | 17.0 | 0.00 | 0.28 | 0.04 | 33 | 1002.2 |
| 20260507194031 | 62 | 298 | 9.0 | 16.0 | 0.00 | 0.28 | 0.04 | 36 | 1002.2 |
| 20260507193531 | 62 | 320 | 7.0 | 16.0 | 0.00 | 0.28 | 0.04 | 36 | 1002.2 |
| 20260507193048 | 62 | 273 | 9.0 | 18.0 | 0.00 | 0.28 | 0.04 | 36 | 1002.3 |
| 20260507192530 | 62 | 340 | 11.0 | 18.0 | 0.00 | 0.28 | 0.04 | 36 | 1002.3 |
| 20260507192032 | 62 | 317 | 8.0 | 16.0 | 0.00 | 0.28 | 0.04 | 35 | 1002.3 |
| 20260507191548 | 62 | 309 | 8.0 | 16.0 | 0.00 | 0.28 | 0.04 | 34 | 1002.4 |
| 20260507191034 | 63 | 275 | 5.0 | 12.0 | 0.00 | 0.28 | 0.04 | 35 | 1002.3 |
| 20260507190530 | 63 | 315 | 4.0 | 13.0 | 0.00 | 0.28 | 0.04 | 37 | 1002.4 |
| 20260507190047 | 62 | 252 | 5.0 | 13.0 | 0.00 | 0.28 | 0.04 | 36 | 1002.4 |
| 20260507185530 | 61 | 293 | 7.0 | 16.0 | 0.00 | 0.28 | 0.04 | 35 | 1002.4 |
| 20260507185030 | 62 | 324 | 4.0 | 20.0 | 0.00 | 0.28 | 0.04 | 38 | 1002.4 |
| 20260507184543 | 61 | 331 | 9.0 | 20.0 | 0.00 | 0.28 | 0.04 | 39 | 1002.5 |
| 20260507184034 | 61 | 311 | 10.0 | 20.0 | 0.00 | 0.28 | 0.04 | 42 | 1002.5 |
| 20260507183534 | 62 | 316 | 7.0 | 14.0 | 0.00 | 0.28 | 0.04 | 46 | 1002.6 |
| 20260507183039 | 61 | 283 | 7.0 | 14.0 | 0.00 | 0.28 | 0.04 | 46 | 1002.6 |
| 20260507182531 | 62 | 288 | 6.0 | 12.0 | 0.00 | 0.28 | 0.04 | 46 | 1002.6 |
| 20260507182030 | 63 | 294 | 4.0 | 12.0 | 0.00 | 0.28 | 0.04 | 46 | 1002.7 |
| 20260507181547 | 62 | 262 | 4.0 | 11.0 | 0.00 | 0.28 | 0.04 | 43 | 1002.7 |
| 20260507181031 | 62 | 242 | 6.0 | 13.0 | 0.00 | 0.28 | 0.04 | 44 | 1002.7 |
| 20260507180531 | 61 | 321 | 5.0 | 14.0 | 0.00 | 0.28 | 0.04 | 47 | 1002.7 |
| 20260507180050 | 62 | 257 | 3.0 | 14.0 | 0.00 | 0.28 | 0.04 | 47 | 1002.8 |
| 20260507175530 | 61 | 303 | 3.0 | 12.0 | 0.00 | 0.28 | 0.04 | 45 | 1002.6 |
| 20260507175030 | 61 | 231 | 6.0 | 12.0 | 0.00 | 0.28 | 0.04 | 46 | 1002.9 |
| 20260507174611 | 61 | 299 | 5.0 | 13.0 | 0.00 | 0.28 | 0.04 | 48 | 1002.8 |
| 20260507174030 | 61 | 299 | 5.0 | 15.0 | 0.00 | 0.28 | 0.04 | 49 | 1002.8 |
| 20260507173529 | 60 | 327 | 8.0 | 16.0 | 0.00 | 0.28 | 0.04 | 49 | 1002.8 |
| 20260507173044 | 59 | 313 | 9.0 | 16.0 | 0.00 | 0.28 | 0.04 | 50 | 1002.9 |
| 20260507172531 | 60 | 309 | 8.0 | 14.0 | 0.00 | 0.28 | 0.04 | 50 | 1002.9 |
| 20260507172031 | 60 | 316 | 5.0 | 14.0 | 0.00 | 0.28 | 0.04 | 50 | 1002.9 |
| 20260507171558 | 60 | 311 | 7.0 | 15.0 | 0.00 | 0.28 | 0.04 | 52 | 1002.9 |
| 20260507171031 | 59 | 304 | 6.0 | 15.0 | 0.00 | 0.28 | 0.04 | 53 | 1003.0 |
| 20260507170531 | 59 | 320 | 7.0 | 12.0 | 0.00 | 0.28 | 0.04 | 53 | 1003.2 |
| 20260507170048 | 60 | 297 | 6.0 | 11.0 | 0.00 | 0.28 | 0.04 | 55 | 1003.0 |
| 20260507165533 | 60 | 296 | 6.0 | 11.0 | 0.00 | 0.28 | 0.04 | 52 | 1003.1 |
| 20260507165030 | 61 | 355 | 2.0 | 8.0 | 0.00 | 0.28 | 0.04 | 55 | 1003.1 |
| 20260507164552 | 61 | 0 | 2.0 | 9.0 | 0.00 | 0.28 | 0.04 | 62 | 1003.2 |
| 20260507164031 | 59 | 138 | 2.0 | 9.0 | 0.00 | 0.28 | 0.04 | 63 | 1003.2 |
| 20260507163531 | 58 | 163 | 2.0 | 8.0 | 0.00 | 0.28 | 0.04 | 67 | 1003.3 |
| 20260507163047 | 57 | 174 | 3.0 | 10.0 | 0.00 | 0.28 | 0.04 | 66 | 1003.4 |
| 20260507162530 | 57 | 181 | 3.0 | 10.0 | 0.00 | 0.28 | 0.04 | 65 | 1003.4 |
| 20260507162031 | 58 | 169 | 3.0 | 10.0 | 0.00 | 0.28 | 0.04 | 65 | 1003.5 |
| 20260507161553 | 58 | 196 | 4.0 | 10.0 | 0.00 | 0.28 | 0.04 | 65 | 1003.4 |
| 20260507161031 | 58 | 235 | 4.0 | 10.0 | 0.00 | 0.28 | 0.04 | 66 | 1003.5 |
| 20260507160531 | 57 | 215 | 3.0 | 12.0 | 0.00 | 0.28 | 0.04 | 67 | 1003.5 |
| 20260507160107 | 57 | 202 | 3.0 | 12.0 | 0.00 | 0.28 | 0.04 | 67 | 1003.6 |
| 20260507155531 | 58 | 195 | 3.0 | 10.0 | 0.00 | 0.28 | 0.04 | 67 | 1003.8 |
| 20260507155031 | 58 | 207 | 3.0 | 10.0 | 0.00 | 0.28 | 0.04 | 67 | 1003.7 |
| 20260507154542 | 58 | 244 | 2.0 | 8.0 | 0.00 | 0.28 | 0.04 | 67 | 1003.8 |
| 20260507154031 | 58 | 217 | 2.0 | 6.0 | 0.00 | 0.28 | 0.04 | 67 | 1003.7 |
| 20260507153530 | 59 | 272 | 1.0 | 6.0 | 0.00 | 0.28 | 0.04 | 67 | 1003.8 |
| 20260507153046 | 59 | 0 | 2.0 | 6.0 | 0.00 | 0.28 | 0.04 | 65 | 1003.9 |
| 20260507152530 | 59 | 192 | 1.0 | 6.0 | 0.00 | 0.28 | 0.04 | 64 | 1004.0 |
| 20260507152031 | 58 | 203 | 2.0 | 6.0 | 0.00 | 0.28 | 0.04 | 61 | 1004.0 |
| 20260507151546 | 58 | 198 | 1.0 | 6.0 | 0.00 | 0.28 | 0.04 | 60 | 1004.0 |
| 20260507151030 | 58 | 186 | 2.0 | 6.0 | 0.00 | 0.28 | 0.04 | 60 | 1004.0 |
| 20260507150533 | 58 | 277 | 2.0 | 6.0 | 0.00 | 0.28 | 0.04 | 63 | 1004.0 |
| 20260507150043 | 58 | 138 | 1.0 | 4.0 | 0.00 | 0.28 | 0.04 | 62 | 1003.9 |
| 20260507145528 | 57 | 317 | 1.0 | 4.0 | 0.00 | 0.28 | 0.04 | 65 | 1004.0 |
| 20260507145031 | 57 | 65 | 0.0 | 7.0 | 0.00 | 0.28 | 0.04 | 64 | 1003.9 |
| 20260507144540 | 57 | 211 | 2.0 | 7.0 | 0.00 | 0.28 | 0.04 | 64 | 1004.1 |
| 20260507144028 | 57 | 0 | 0.0 | 6.0 | 0.00 | 0.28 | 0.04 | 65 | 1004.0 |
| 20260507143530 | 57 | 323 | 0.0 | 8.0 | 0.00 | 0.28 | 0.04 | 64 | 1004.0 |
| 20260507143045 | 57 | 317 | 1.0 | 8.0 | 0.00 | 0.28 | 0.04 | 65 | 1004.1 |
| 20260507142531 | 57 | 10 | 1.0 | 7.0 | 0.00 | 0.28 | 0.04 | 66 | 1004.1 |
| 20260507142033 | 57 | 260 | 3.0 | 7.0 | 0.00 | 0.28 | 0.04 | 66 | 1004.3 |
| 20260507141547 | 56 | 0 | 1.0 | 4.0 | 0.00 | 0.28 | 0.04 | 67 | 1004.3 |
| 20260507141030 | 57 | 0 | 0.0 | 4.0 | 0.00 | 0.28 | 0.04 | 70 | 1004.3 |
| 20260507140527 | 57 | 325 | 1.0 | 5.0 | 0.00 | 0.28 | 0.04 | 70 | 1004.5 |
| 20260507140053 | 56 | 0 | 0.0 | 6.0 | 0.00 | 0.28 | 0.04 | 70 | 1004.6 |
| 20260507135528 | 56 | 306 | 3.0 | 7.0 | 0.00 | 0.28 | 0.04 | 71 | 1004.5 |
| 20260507135030 | 56 | 329 | 2.0 | 7.0 | 0.00 | 0.28 | 0.04 | 72 | 1004.5 |
| 20260507134539 | 56 | 333 | 0.0 | 5.0 | 0.00 | 0.28 | 0.04 | 73 | 1004.6 |
| 20260507134027 | 55 | 311 | 1.0 | 7.0 | 0.00 | 0.28 | 0.04 | 72 | 1004.6 |
| 20260507133531 | 54 | 0 | 2.0 | 7.0 | 0.00 | 0.28 | 0.04 | 73 | 1004.6 |
| 20260507133051 | 54 | 341 | 3.0 | 8.0 | 0.00 | 0.28 | 0.04 | 74 | 1004.6 |
| 20260507132531 | 54 | 327 | 3.0 | 8.0 | 0.00 | 0.28 | 0.04 | 75 | 1004.7 |
| 20260507132030 | 54 | 336 | 2.0 | 6.0 | 0.00 | 0.28 | 0.04 | 75 | 1004.8 |
| 20260507131612 | 53 | 355 | 2.0 | 9.0 | 0.00 | 0.28 | 0.04 | 75 | 1004.8 |
| 20260507131031 | 53 | 323 | 5.0 | 9.0 | 0.00 | 0.28 | 0.04 | 75 | 1004.8 |
| 20260507130530 | 53 | 341 | 3.0 | 10.0 | 0.00 | 0.28 | 0.04 | 76 | 1004.8 |
| 20260507130047 | 52 | 350 | 5.0 | 10.0 | 0.00 | 0.28 | 0.04 | 75 | 1004.9 |
| 20260507125530 | 53 | 333 | 2.0 | 6.0 | 0.00 | 0.28 | 0.04 | 76 | 1004.9 |
| 20260507125030 | 52 | 321 | 3.0 | 8.0 | 0.00 | 0.28 | 0.04 | 76 | 1005.0 |
| 20260507124552 | 52 | 355 | 3.0 | 8.0 | 0.00 | 0.28 | 0.04 | 75 | 1005.0 |
| 20260507124030 | 52 | 329 | 3.0 | 8.0 | 0.00 | 0.28 | 0.04 | 75 | 1005.1 |
| 20260507123530 | 52 | 328 | 2.0 | 8.0 | 0.00 | 0.28 | 0.04 | 77 | 1005.0 |
| 20260507123045 | 51 | 319 | 5.0 | 8.0 | 0.00 | 0.28 | 0.04 | 75 | 1005.1 |
| 20260507122527 | 51 | 302 | 3.0 | 5.0 | 0.00 | 0.28 | 0.04 | 76 | 1005.1 |
| 20260507122027 | 51 | 302 | 3.0 | 5.0 | 0.00 | 0.28 | 0.04 | 76 | 1005.1 |
| 20260507121541 | 51 | 323 | 3.0 | 7.0 | 0.00 | 0.28 | 0.04 | 77 | 1005.0 |
| 20260507121031 | 50 | 316 | 3.0 | 7.0 | 0.00 | 0.28 | 0.04 | 77 | 1004.9 |
| 20260507120530 | 50 | 321 | 3.0 | 10.0 | 0.00 | 0.28 | 0.04 | 79 | 1005.0 |
| 20260507120046 | 50 | 328 | 3.0 | 10.0 | 0.00 | 0.28 | 0.04 | 81 | 1005.0 |
| 20260507115530 | 49 | 318 | 3.0 | 6.0 | 0.00 | 0.28 | 0.04 | 84 | 1005.1 |
| 20260507115030 | 49 | 329 | 2.0 | 5.0 | 0.00 | 0.28 | 0.04 | 85 | 1005.2 |
| 20260507114543 | 49 | 302 | 2.0 | 5.0 | 0.00 | 0.28 | 0.04 | 86 | 1004.9 |
| 20260507114028 | 48 | 317 | 2.0 | 4.0 | 0.00 | 0.28 | 0.04 | 86 | 1004.9 |
| 20260507113531 | 48 | 294 | 1.0 | 4.0 | 0.00 | 0.28 | 0.04 | 86 | 1004.9 |
| 20260507113114 | 48 | 319 | 2.0 | 5.0 | 0.00 | 0.28 | 0.04 | 86 | 1005.0 |
| 20260507112533 | 48 | 325 | 2.0 | 5.0 | 0.00 | 0.28 | 0.04 | 86 | 1005.0 |
| 20260507112030 | 48 | 345 | 2.0 | 4.0 | 0.00 | 0.28 | 0.04 | 85 | 1005.0 |
| 20260507111539 | 48 | 300 | 2.0 | 5.0 | 0.00 | 0.28 | 0.04 | 85 | 1005.1 |
| 20260507111030 | 48 | 325 | 3.0 | 5.0 | 0.00 | 0.28 | 0.04 | 85 | 1005.1 |
| 20260507110530 | 48 | 338 | 2.0 | 4.0 | 0.00 | 0.28 | 0.04 | 85 | 1004.9 |
| 20260507110047 | 48 | 319 | 2.0 | 4.0 | 0.00 | 0.28 | 0.04 | 85 | 1005.1 |
| 20260507105531 | 48 | 317 | 2.0 | 4.0 | 0.00 | 0.28 | 0.04 | 85 | 1005.3 |
| 20260507105030 | 48 | 337 | 1.0 | 4.0 | 0.00 | 0.28 | 0.04 | 85 | 1005.0 |
| 20260507104558 | 48 | 317 | 2.0 | 4.0 | 0.00 | 0.28 | 0.04 | 85 | 1004.9 |
| 20260507104030 | 48 | 323 | 2.0 | 3.0 | 0.00 | 0.28 | 0.04 | 85 | 1005.1 |
| 20260507103531 | 48 | 302 | 1.0 | 4.0 | 0.00 | 0.28 | 0.04 | 85 | 1005.5 |
| 20260507103043 | 48 | 319 | 2.0 | 4.0 | 0.00 | 0.28 | 0.04 | 85 | 1005.5 |
| 20260507102535 | 48 | 319 | 2.0 | 5.0 | 0.00 | 0.28 | 0.04 | 85 | 1005.2 |
| 20260507102031 | 48 | 321 | 3.0 | 5.0 | 0.00 | 0.28 | 0.04 | 86 | 1005.0 |
| 20260507101554 | 48 | 311 | 2.0 | 5.0 | 0.00 | 0.28 | 0.04 | 86 | 1005.3 |
| 20260507101031 | 48 | 327 | 3.0 | 5.0 | 0.00 | 0.28 | 0.04 | 86 | 1004.9 |
| 20260507100530 | 48 | 329 | 2.0 | 4.0 | 0.00 | 0.28 | 0.04 | 86 | 1005.1 |
| 20260507100054 | 48 | 309 | 2.0 | 4.0 | 0.00 | 0.28 | 0.04 | 86 | 1005.2 |
| 20260507095534 | 48 | 315 | 2.0 | 5.0 | 0.00 | 0.28 | 0.04 | 86 | 1005.0 |
| 20260507095035 | 48 | 312 | 3.0 | 5.0 | 0.00 | 0.28 | 0.04 | 85 | 1005.1 |
| 20260507094541 | 48 | 327 | 3.0 | 6.0 | 0.00 | 0.28 | 0.04 | 86 | 1004.9 |
| 20260507094030 | 48 | 322 | 3.0 | 6.0 | 0.00 | 0.28 | 0.04 | 86 | 1004.3 |
| 20260507093530 | 48 | 306 | 2.0 | 5.0 | 0.00 | 0.28 | 0.04 | 86 | 1004.3 |
| 20260507093047 | 48 | 321 | 3.0 | 5.0 | 0.00 | 0.28 | 0.04 | 86 | 1004.7 |
| 20260507092530 | 48 | 308 | 2.0 | 6.0 | 0.00 | 0.28 | 0.04 | 87 | 1004.9 |
| 20260507092031 | 48 | 298 | 2.0 | 6.0 | 0.00 | 0.28 | 0.04 | 87 | 1004.2 |
| 20260507091548 | 48 | 333 | 4.0 | 6.0 | 0.00 | 0.28 | 0.04 | 87 | 1004.0 |
| 20260507091030 | 48 | 327 | 3.0 | 8.0 | 0.00 | 0.28 | 0.04 | 87 | 1004.0 |
| 20260507090530 | 48 | 336 | 3.0 | 8.0 | 0.00 | 0.28 | 0.04 | 87 | 1004.5 |
| 20260507090045 | 49 | 331 | 3.0 | 8.0 | 0.00 | 0.28 | 0.04 | 87 | 1004.4 |
| 20260507085531 | 49 | 336 | 2.0 | 5.0 | 0.00 | 0.28 | 0.04 | 87 | 1004.3 |
| 20260507085031 | 49 | 329 | 3.0 | 9.0 | 0.00 | 0.28 | 0.04 | 86 | 1004.4 |
| 20260507084556 | 49 | 352 | 4.0 | 9.0 | 0.00 | 0.28 | 0.04 | 86 | 1004.2 |
| 20260507084030 | 49 | 355 | 4.0 | 9.0 | 0.00 | 0.28 | 0.04 | 86 | 1004.6 |
| 20260507083530 | 49 | 303 | 5.0 | 12.0 | 0.00 | 0.28 | 0.04 | 85 | 1004.8 |
| 20260507083047 | 49 | 317 | 4.0 | 12.0 | 0.00 | 0.28 | 0.04 | 86 | 1004.7 |
| 20260507082533 | 50 | 304 | 5.0 | 9.0 | 0.00 | 0.28 | 0.04 | 87 | 1004.5 |
| 20260507082032 | 50 | 312 | 4.0 | 11.0 | 0.00 | 0.28 | 0.04 | 87 | 1004.4 |
| 20260507081546 | 50 | 302 | 4.0 | 11.0 | 0.00 | 0.28 | 0.04 | 88 | 1004.2 |
| 20260507081032 | 50 | 355 | 5.0 | 11.0 | 0.00 | 0.28 | 0.04 | 89 | 1004.0 |
| 20260507080532 | 49 | 5 | 5.0 | 11.0 | 0.00 | 0.28 | 0.04 | 91 | 1003.8 |
| 20260507080052 | 50 | 325 | 3.0 | 8.0 | 0.00 | 0.28 | 0.04 | 92 | 1003.9 |
| 20260507075535 | 49 | 341 | 3.0 | 6.0 | 0.00 | 0.28 | 0.04 | 92 | 1004.0 |
| 20260507075032 | 50 | 341 | 1.0 | 4.0 | 0.00 | 0.28 | 0.04 | 93 | 1004.2 |
| 20260507074545 | 50 | 311 | 1.0 | 4.0 | 0.00 | 0.28 | 0.04 | 93 | 1004.3 |
| 20260507074031 | 50 | 308 | 2.0 | 4.0 | 0.00 | 0.28 | 0.04 | 93 | 1004.3 |
| 20260507073532 | 50 | 327 | 2.0 | 5.0 | 0.00 | 0.28 | 0.04 | 93 | 1004.0 |
| 20260507073045 | 50 | 320 | 3.0 | 5.0 | 0.00 | 0.28 | 0.04 | 93 | 1004.1 |
| 20260507072533 | 50 | 344 | 3.0 | 5.0 | 0.00 | 0.28 | 0.04 | 93 | 1004.0 |
| 20260507072032 | 50 | 340 | 2.0 | 5.0 | 0.00 | 0.28 | 0.04 | 94 | 1003.9 |
| 20260507071547 | 50 | 327 | 2.0 | 3.0 | 0.00 | 0.28 | 0.04 | 94 | 1003.7 |
| 20260507071032 | 50 | 327 | 2.0 | 3.0 | 0.00 | 0.28 | 0.04 | 94 | 1003.8 |
| 20260507070532 | 50 | 321 | 2.0 | 4.0 | 0.00 | 0.28 | 0.04 | 94 | 1003.8 |
| 20260507070059 | 50 | 329 | 2.0 | 4.0 | 0.00 | 0.28 | 0.04 | 94 | 1003.8 |
| 20260507065532 | 50 | 322 | 2.0 | 4.0 | 0.00 | 0.28 | 0.04 | 94 | 1003.6 |
| 20260507065032 | 50 | 319 | 2.0 | 3.0 | 0.00 | 0.28 | 0.04 | 94 | 1003.6 |
| 20260507064547 | 50 | 305 | 0.0 | 3.0 | 0.00 | 0.28 | 0.04 | 94 | 1003.7 |
| 20260507064032 | 50 | 0 | 0.0 | 2.0 | 0.00 | 0.28 | 0.04 | 94 | 1003.7 |
| 20260507063532 | 50 | 305 | 0.0 | 3.0 | 0.00 | 0.28 | 0.04 | 94 | 1003.7 |
| 20260507063041 | 50 | 0 | 0.0 | 3.0 | 0.00 | 0.28 | 0.04 | 94 | 1003.5 |
| 20260507062533 | 50 | 305 | 1.0 | 3.0 | 0.00 | 0.28 | 0.04 | 94 | 1003.6 |
| 20260507062033 | 51 | 328 | 2.0 | 3.0 | 0.00 | 0.28 | 0.04 | 94 | 1003.5 |
| 20260507061545 | 51 | 300 | 0.0 | 2.0 | 0.01 | 0.28 | 0.04 | 94 | 1003.5 |
| 20260507061033 | 51 | 0 | 0.0 | 4.0 | 0.01 | 0.28 | 0.04 | 94 | 1003.4 |